Tracking 20066 objects as of 7-Dec-2019
HD Live streaming from Space Station
objects crossing your sky now

DELTA 1 R/B

Track DELTA 1 R/B now!
10-day predictions
DELTA 1 R/B is classified as:


NORAD ID: 20323
Int'l Code: 1989-089B
Perigee: 686.3 km
Apogee: 790.2 km
Inclination: 97.1 °
Period: 99.4 minutes
Semi major axis: 7109 km
RCS: 8.9124 m2 (large)
Launch date: November 18, 1989
Source: United States (US)
Launch site: AIR FORCE WESTERN TEST RANGE (AFWTR)

Note: This is a ROCKET BODY
aabbcc
Your satellite tracking list
Your tracking list is empty




NASA's NSSDC Master Catalog

Two Line Element Set (TLE):
1 20323U 89089B   19340.91615842 +.00000060 +00000-0 +24398-4 0  9993
2 20323 097.0654 152.9988 0073080 119.7716 241.0776 14.48325061564854
Source of the keplerian elements: AFSPC